Weather Service Report


572 
ASUS41 KAKQ 010515
RWRAKQ

REGIONAL WEATHER ROUNDUP
NATIONAL WEATHER SERVICE WAKEFIELD VA
100 AM EDT SAT AUG 01 2015

Note: "fair" indicates few or no clouds below 12,000 feet with no
significant weather and/or obstructions to visibility. * = Denotes
station may not report precipitation (e.g., rain,snow,etc.),
thunder or fog.

VAZ042-051-052>054-056-010600-
NORTHERN VIRGINIA
  
CITY           SKY/WX    TMP DP  RH WIND       PRES   REMARKS
WASH NATIONAL  PTCLDY    79  64  60 SW7       29.90F                  
DULLES         CLEAR     70  64  81 S3        29.91S                  
FORT BELVOIR   NOT AVBL                                               
QUANTICO       NOT AVBL                                               
FREDERICKSBRG* CLEAR     73  67  82 CALM      29.91S                  
STAFFORD*      CLEAR     65  64  95 CALM      29.95F                  
WARRENTON      CLEAR     67  66  99 S3        29.91F                  
CULPEPER*      CLEAR     66  65  97 CALM      29.93S                  
MANASSAS*      CLEAR     68  68 100 S3        29.91F                  
LEESBURG*      CLEAR     72  68  88 SW5       29.92S                  
WINCHESTER     CLEAR     72  61  68 SW5       29.92F                  
FRONT ROYAL*   FAIR      70  61  73 S6        29.93S                  
LURAY*         FAIR      68  64  88 S5        29.96S                  
$$

VAZ048-049-060>072-079>083-010600-
CENTRAL AND SOUTH CENTRAL VIRGINIA
  
CITY           SKY/WX    TMP DP  RH WIND       PRES   REMARKS
RICHMOND       CLEAR     73  64  73 CALM      29.92F                  
CHESTERFIELD*  FAIR      68  54  60 CALM      29.94F                  
PETERSBURG*    CLEAR     66  66 100 CALM      29.93F                  
HANOVER        CLEAR     67  65  93 CALM      29.94S                  
TAPPAHANNOCK*  CLEAR     67  64  90 CALM      29.93S                  
QUINTON*       FAIR      67  66  96 CALM      29.92S                  
CHARLOTTSVILLE CLEAR     69  64  84 VRB5      29.94S                  
GORDONSVILLE*  FAIR      66  64  94 CALM      29.93S                  
ORANGE*        CLEAR     68  66  94 CALM      29.95S                  
LOUISA*        CLEAR     70  63  78 CALM      29.92F                  
BUMPASS*       FAIR      68  64  86 MISG      29.92S                  
FARMVILLE*     CLEAR     67  64  89 CALM      29.93F                  
CREWE*         FAIR     N/A N/A N/A CALM      29.94F                  
FORT PICKETT*  FAIR      68  63  82 CALM      29.94F                  
CHASE CITY*    FAIR      69  69 100 CALM      29.96S                  
CLARKSVILLE*   FAIR      66  64  94 CALM      29.94F                  
SOUTH HILL*    CLEAR     66  63  90 CALM      30.00S                  
LAWRENCEVILLE* FAIR      68  64  88 CALM      29.94S                  
EMPORIA*       CLEAR     68  68 100 CALM      29.95S                  
$$

VAZ088>098-010600-
SOUTHEAST VIRGINIA
  
CITY           SKY/WX    TMP DP  RH WIND       PRES   REMARKS
NORFOLK        CLEAR     75  66  73 S5        29.92F                  
VIRGINIA BEACH CLEAR     74  65  73 SW3       29.92F                  
NORFOLK NAVAL  PTCLDY    74  67  78 S5        29.93F                  
WEST POINT*    CLEAR     70  67  90 CALM      29.93S                  
SALUDA*        FAIR      72  67  83 SW6       29.91F                  
NEWPORT NEWS   CLEAR     69  67  93 CALM      29.92F                  
LANGLEY AFB    CLEAR     75  68  78 S7        29.92F                  
FORT EUSTIS    CLEAR     73  73 100 S2        29.90F                  
WILLIAMSBURG*  CLEAR     73  72  94 CALM      29.93S                  
HR EXEC AP*    FAIR      66  63  88 CALM      29.95S                  
FRANKLIN*      CLEAR     70  67  92 CALM      29.94S                  
WAKEFIELD      CLEAR     68  65  90 CALM      29.93F                  
$$

VAZ020-022-025-037-045-010600-
WEST CENTRAL AND SOUTHWEST VIRGINIA
  
CITY           SKY/WX    TMP DP  RH WIND       PRES   REMARKS
STAUNTON*      CLEAR     66  62  85 SW3       30.00S                  
WAYNESBORO*    FAIR      64  60  89 CALM      30.00S                  
HOT SPRINGS VA CLEAR     66  55  69 W14       30.10F                  
LYNCHBURG      CLEAR     64  62  93 CALM      29.99S                  
DANVILLE       CLEAR     70  66  87 NW5       29.97S                  
SOUTH BOSTON*  FAIR      65  64  94 CALM      29.96S                  
MARTINSVILLE   CLEAR     63  63 100 CALM      30.02S                  
ROANOKE        CLEAR     67  58  72 NW3       30.03S                  
BLACKSBURG     CLEAR     61  59  94 CALM      30.10S                  
DUBLIN*          N/A     64  59  86 SW3       30.09S                  
MARION*        CLEAR     60  58  92 CALM      30.14S                  
HILLSVILLE*    CLEAR     65  56  72 W5        30.10S                  
RICHLANDS*     FAIR      65  58  78 S3        30.12S                  
WISE*          CLEAR     63  55  77 CALM      30.14S                  
ABINGDON*      CLEAR     63  58  84 CALM      30.09S                  
$$

MDZ021>025-VAZ099-100-010600-
SOUTHERN MARYLAND AND THE DELMARVA PENINSULA
  
CITY           SKY/WX    TMP DP  RH WIND       PRES   REMARKS
PATUXENT RIVER CLEAR     73  66  78 SW8       29.90S                  
BAY BRIDGE APT   N/A     79  63  57 SW7       29.89S                  
LEONARDTOWN    CLEAR     72  64  78 CALM      29.92S                  
DOVER          CLEAR     73  65  75 SW6       29.86S                  
GEORGETOWN     CLEAR     70  64  81 SW3       29.90S                  
EASTON         CLEAR     75  70  85 CALM      29.93S                  
CAMBRIDGE      CLEAR     72  68  88 CALM      29.89S                  
SALISBURY      CLEAR     71  66  84 CALM      29.90S                  
OCEAN CITY     CLEAR     72  64  76 W5        29.89F                  
WALLOPS ISLAND CLEAR     75  66  73 SW7       29.91F                  
ACCOMACK*      CLEAR     70  70 100 SW6       29.91F                  
$$

NCZ012>017-030>032-010600-
NORTH CENTRAL AND EASTERN NORTH CAROLINA
  
CITY           SKY/WX    TMP DP  RH WIND       PRES   REMARKS
ROANOKE RAPIDS FAIR      66  64  94 CALM      29.93F                  
RALEIGH        MOCLDY    71  65  81 CALM      29.95S                  
ELIZABETH CITY CLEAR     73  67  81 CALM      29.93F                  
AHOSKIE*       CLEAR     69  67  93 CALM      29.94R                  
EDENTON*       CLEAR     77  66  70 S7        29.94S                  
CURRITUCK*     CLEAR     73  67  83 CALM      29.94F                  
KILL DEVIL HLS CLEAR     77  65  68 CALM      29.93S                  
MANTEO         CLEAR     72  67  83 CALM      29.94S                  
CAPE HATTERAS  MOCLDY    79  72  79 SE7       29.95R                  
TARBORO*         N/A     71  69  94 CALM      29.94S                  
GOLDSBORO      CLEAR     77  67  70 W2        29.91R                  
WASHINGTON     PTCLDY    74  72  92 E7        29.94S                  
GREENVILLE     PTCLDY    73  72  94 E3        29.95S                  
NEW BERN       PTCLDY    75  72  90 CALM      29.96R                  
WILMINGTON     CLOUDY    77  75  93 N3        29.94R                  
$$

VAZ048-010600-
ELSEWHERE
  
CITY           SKY/WX    TMP DP  RH WIND       PRES   REMARKS
HARRISBURG PA  PTCLDY    71  64  78 CALM      29.85F                  
BALTIMORE      CLEAR     70  63  78 SW3       29.88F                  
ANNAPOLIS      CLEAR     75  62  64 CALM      29.88S                  
ANDREWS AFB    CLEAR     73  65  74 SW7       29.90S                  
PHILADELPHIA   CLEAR     77  65  66 SW8       29.86F                  
HENDERSON NC   CLEAR     68  64  86 W3        29.95F                  
GREENSBORO     CLEAR     73  59  61 CALM      29.98S                  
ROCKY MOUNT    CLEAR     72  65  78 CALM      29.94S                  
$$

VAZ100-010600-
MARINE
  
STATION/POSITION TIME  TEMP    WIND        PRES    WAVE   SWELL
                       AIR SEA DIR/SP/G            HT/PER HT/PER
                 (UTC) (F)     (DEG/KT/KT) (MB)    (FT/S) (FT/S)
BRANDYWINE LGT   0400   77 72  220/ 10/ 10 1012.1F
CAPE MAY NJ      0400   74 77  200/  5/  7 1011.7S
LEWES DE         0400   74 77  210/  5/  7 1012.0S
15NM E FENWICK I 0450   80 79  220/ 12/ 14 1012.2F   3/ 8   2/ 8
OCEAN-CITY-INLET 0400   75 76  260/  3/  3 1011.7R
WACHAPREAGUE VA  0400   75 84  260/  4/  6 1013.1
GOOSES REEF MD   0500   81 82  250/ 10/ 12 1013.2F
COVE POINT MD    0400   78     250/  8/ 11 1013.0S
SOLOMONS ISLAND  0400      83                N/A
BISHOPS HEAD MD  0400   83 83  240/ 14/ 15 1011.5F
PINEY POINT MD   0400          240/  7/ 10   N/A
POTOMAC MD       0500   81 83  230/ 12/ 14 1011.4F   1/ 3
CAMBRIDGE MD     0400   76 84  180/  2/  4 1011.4S
LEWISETTA VA     0400   77 84  230/  8/  9 1012.4F
RAPPAHANNOCK LGT 0400          220/ 11/ 12 1013.6F
STINGRAY PT      0500   81 83  230/ 10/ 10 1012.9F
YORK RVR RNG VA  0400   82     200/  9/ 10 1012.7F
YORKTOWN VA      0400   77 84  190/  4/  5 1013.0F
JAMESTOWN VA     0500   78 86  240/  2/  4   N/A
DOMINION TERM VA 0400   80     210/ 11/ 13 1013.3F
KIPTOPEKE VA     0400      83  220/ 12/ 14   N/A
CHES BAY BRIDGE  0400   80 78  190/  8/  9 1013.2S
CAPE HENRY VA    0400   77     200/  5/  6   N/A
CHESAPEAKE LGHT  0400   81     230/ 10/ 10 1014.3S
WILLOUBY STN VA  0400   80     210/ 10/ 12 1014.3F
CAPE HENRY BUOY  0428      81                N/A     2/ 9
1ST LANDING BUOY 0500      79              1012.9F   1/ 4
CAPE CHARLES BUO 0426      81                N/A     2/10   2/10
OFFSHORE WE BUOY 0411      82                N/A     3/ 8   3/ 8
64NM E OF VA BCH 0450   81 81  300/  4/  4 1012.9F   3/ 9   3/ 9
DUCK PIER NC     0400   80 66  140/  3/  3 1013.1F
44100 DUCK FRF   0424      81                N/A     3/ 9   2/11
44056 DUCK FRF   0411      80                N/A     2/ 4
OREGON INLET NC  0400   78 83  120/  2/  2 1013.7F
HATTERAS NC      0400   79 83   80/  4/  4 1013.5F
DIAMOND SHLS NC  0450   81 85  140/  2/  4 1014.3R   4/ 7   3/ 7
CAPE LOOKOUT NC  0500   77     210/  8/ 10 1013.8R
$$

Return to Home page


Western Regional Climate Center, wrcc@dri.edu